Location: Hains Lake
(37.8540°N, 99.8578°W)
Time: 05:19:20
(UTC+00:00)

Vanguard 2 Rocket - Pass Details

Date: 24 April 2021
Orbit: 553 x 3326 km, 32.9° (Epoch: 07 May)

Event Time Altitude Azimuth Distance (km) Brightness Sun altitude
Rises 16:47:49 0° 210° (SSW) 5,085 10.8 55.3°
Reaches altitude 10° 16:51:04 10° 202° (SSW) 4,441 10.7 55.8°
Maximum altitude 17:02:48 37° 140° (SE) 3,696 11.6 57.5°
Drops below altitude 10° 17:19:21 10° 83° (E) 6,238 11.5 59.8°
Sets 17:24:56 0° 76° (ENE) 7,318 11.7 60.5°
